This is the latest recevied weather packets stored in our database for station/object KC2TER. If no packets are shown the sender has not sent any weather packets the latest 1 day(s).
| Time | Temp. | Humidity | Pressure | Rain* | Wind** | Luminosity | Snow |
|---|---|---|---|---|---|---|---|
| 1778068236 | 18.33° C | 78% | 1010.5 hPa | 0 mm | - | 219 W/m² | - |
| 1778067933 | 17.78° C | 79% | 1010.4 hPa | 0 mm | - | 160 W/m² | - |
| 1778067329 | 17.78° C | 80% | 1010.7 hPa | 0 mm | - | 104 W/m² | - |
| 1778067026 | 17.22° C | 80% | 1010.6 hPa | 0 mm | - | 82 W/m² | - |
| 1778066420 | 17.22° C | 81% | 1010.7 hPa | 0 mm | - | 44 W/m² | - |
| 1778066118 | 17.22° C | 81% | 1010.6 hPa | 0 mm | - | 46 W/m² | - |
| 1778064905 | 16.67° C | 83% | 1010.6 hPa | 0 mm | - | 50 W/m² | - |
| 1778064603 | 16.67° C | 84% | 1010.5 hPa | 0 mm | - | 38 W/m² | - |
| 1778063392 | 16.11° C | 85% | 1010.4 hPa | 0 mm | - | 14 W/m² | - |
| 1778063090 | 16.11° C | 85% | 1010.5 hPa | 0 mm | - | 10 W/m² | - |
| 1778062787 | 16.11° C | 85% | 1010.6 hPa | 0 mm | - | 9 W/m² | - |
| 1778062181 | 16.11° C | 85% | 1010.4 hPa | 0 mm | - | 7 W/m² | - |
| 1778061577 | 16.11° C | 85% | 1010.3 hPa | 0 mm | - | 3 W/m² | - |
| 1778060670 | 16.11° C | 85% | 1010.3 hPa | 0 mm | - | 0 W/m² | - |
| 1778060367 | 16.67° C | 85% | 1010.4 hPa | 0 mm | - | 0 W/m² | - |
| 1778060065 | 16.67° C | 85% | 1010.4 hPa | 0 mm | - | 0 W/m² | - |
| 1778059460 | 16.67° C | 85% | 1010.3 hPa | 0 mm | - | 0 W/m² | - |
| 1778058855 | 16.67° C | 85% | 1010.4 hPa | 0 mm | - | 0 W/m² | - |
| 1778057035 | 16.67° C | 84% | 1010.7 hPa | 0 mm | - | 0 W/m² | - |
| 1778056732 | 16.67° C | 85% | 1010.8 hPa | 0 mm | - | 0 W/m² | - |
| 1778055519 | 16.67° C | 84% | 1010.7 hPa | 0 mm | - | 0 W/m² | - |
| 1778055218 | 16.67° C | 84% | 1010.8 hPa | 0 mm | - | 0 W/m² | - |
| 1778054915 | 16.67° C | 84% | 1010.6 hPa | 0 mm | - | 0 W/m² | - |
| 1778053400 | 17.22° C | 83% | 1011 hPa | 0 mm | - | 0 W/m² | - |
| 1778053098 | 16.67° C | 83% | 1010.9 hPa | 0 mm | - | 0 W/m² | - |
* Rain latest hour (hover to see other rain measurements)
** Current wind speed in m/s (hover to see current wind gust speed)